Regional Weather Roundup
Issued by NWS Green Bay, WI

Home | Current Version | Previous Version | Text Only | Print | Product List | Glossary On
Versions: 1 2 3 4 5 6 7 8 9 10 11 12 13 14 15 16 17 18 19 20 21 22 23 24 25 26 27 28 29 30 31 32 33 34 35 36 37 38 39 40 41 42 43 44 45 46 47 48 49 50
186
ASUS43 KGRB 192300
RWRGRB

NORTH-CENTRAL AND NORTHEAST WISCONSIN REGIONAL WEATHER ROUNDUP
NATIONAL WEATHER SERVICE GREEN BAY WI
500 PM CST MON FEB 19 2018

WIZ005-009-010>012-018-019-200000-
NORTH CENTRAL WISCONSIN

CITY           SKY/WX    TMP DP  RH WIND       PRES   REMARKS
IRONWOOD       LGT SNOW  16  12  84 NE14      29.99F FOG     WCI   2
MANITOWISH WTR NOT AVBL
ARBOR VITAE    NOT AVBL
EAGLE RIVER    LGT SNOW  18  13  81 NE14G22   29.91R WCI   4
LAND O LAKES   LGT SNOW  17  13  85 NE9G16    29.94R WCI   6
RHINELANDER    MIX PCPN  20  18  92 NE10      29.90R FOG     WCI   9
PHILLIPS       LGT SNOW  18  16  90 NE15      29.88F WCI   4
ANTIGO         NOT AVBL
TOMAHAWK       NOT AVBL
MERRILL        CLOUDY    23  21  91 E8        29.86S
$$

WIZ013-073-200000-
NORTHEAST WISCONSIN

CITY           SKY/WX    TMP DP  RH WIND       PRES   REMARKS
IRON MOUNTAIN  LGT SNOW  23  19  85 NE6       29.94R VSB 1
MARINETTE      FLURRIES  27  24  89 NE12      29.95R
$$

WIZ017-030-035>037-045-200000-
CENTRAL WISCONSIN

CITY           SKY/WX    TMP DP  RH WIND       PRES   REMARKS
MEDFORD        NOT AVBL
WAUSAU         MIX PCPN  25  22  88 E10       29.83F FOG
MOSINEE        CLOUDY    27  25  93 NE16G22   29.85S FOG
MARSHFIELD     FRZ RAIN  27  25  92 E20       29.79F FOG
WISC RAPIDS    CLOUDY    28  25  88 E14G23    29.83S FOG
STEVENS POINT  NOT AVBL
WAUPACA        CLOUDY    31  28  87 NE9G20    29.87S FOG
SHAWANO        MIX PCPN  28  24  86 NE14      29.91R
CLINTONVILLE   MIX PCPN  27  23  87 NE13G18   29.90S
WAUTOMA        CLOUDY    29  27  92 E17G26    29.83F FOG
$$

WIZ038-039-048-051-200000-
FOX VALLEY

CITY           SKY/WX    TMP DP  RH WIND       PRES   REMARKS
NWS GREEN BAY  FRZ RAIN  27  24  89 NE25G31   29.89F FOG
APPLETON       CLOUDY    27  23  86 NE18G29   29.85S FOG
OSHKOSH        MIX PCPN  29  27  92 NE17      29.85R FOG
FOND DU LAC    LGT RAIN  34  30  85 NE14      29.84S FOG
$$

WIZ022-050-052-200000-
EAST CENTRAL WISCONSIN

CITY           SKY/WX    TMP DP  RH WIND       PRES   REMARKS
EPHRAIM        NOT AVBL
WASHINGTON ISL NOT AVBL
STURGEON BAY   LGT SNOW  29  27  92 N13       29.92R FOG
MANITOWOC      CLOUDY    32  31  96 NE9G16    29.88R FOG
SHEBOYGAN      CLOUDY    33  33 100 NE18      29.84F FOG
$$

LMZ563-521-522-541>543-200000-
LAKESHORE

STATION/POSITION TIME  TEMP    WIND        PRES    VSBY  WAVE
                       AIR SEA DIR/SP/G                  HT/PER
                 (UTC) (F)     (DEG/KT/KT) (MB)    (MI)  (FT/S)
SHEBOYGAN LKSHOR 2200   35      30/ 18/ 21 1011.4R
KEWAUNEE LKSHORE 2230   31      30/  2/  4 1011.8R
NORTHPORT PIER   2242   29                 1013.9F
SISTER BAY LKSHO 2220   29      20/ 11/ 16   N/A
MENOMINEE LKSHOR 2224   27      10/ 16/ 18 1013.4
$$




USA.gov is the U.S. government's official web portal to all federal, state and local government web resources and services.